GFSNE_700_spd_009.txt.gz
Wind_Speed
36 35 30 31 33 38 31 33 39 43 42 42 44 46 49 52 53 53 52 53 49 48 47 48 48 50 54 55 51 47 46 48 49 51 50 53 64 54
39 36 33 34 31 31 36 38 40 42 45 41 43 44 46 48 50 52 53 51 49 48 48 48 49 49 52 54 54 50 46 47 48 50 45 57 59 58
34 33 32 33 35 34 34 36 38 41 45 45 46 47 46 48 49 50 52 53 50 49 48 49 49 48 49 51 53 54 51 48 52 62 62 67 57 60
33 34 36 37 37 36 36 37 38 40 42 45 44 45 46 44 45 46 48 49 50 49 48 48 51 51 50 46 50 52 50 50 50 55 61 59 52 56
33 35 35 36 36 36 36 37 38 40 42 45 46 44 46 44 43 44 46 46 45 45 46 48 49 52 54 55 48 50 50 47 47 51 53 64 59 62
35 34 34 35 36 36 37 39 39 41 42 45 46 46 47 47 46 46 47 46 45 45 46 46 48 51 54 56 59 58 54 50 47 45 46 46 64 59
33 33 34 35 35 37 40 40 41 42 43 46 48 47 47 48 48 46 47 45 46 45 45 45 46 48 51 53 55 58 58 56 53 48 45 41 41 50
37 36 36 36 36 37 38 39 40 41 42 42 41 40 39 39 40 41 42 44 45 44 44 43 43 43 46 49 52 54 54 53 58 54 48 45 43 40
37 37 37 35 35 36 36 36 36 35 37 37 38 37 36 35 36 37 36 36 36 35 40 43 43 44 44 45 46 51 53 51 52 53 54 50 46 42
35 35 35 34 32 33 32 31 32 33 34 35 37 35 34 35 36 37 36 35 34 32 32 36 37 40 40 42 44 47 49 49 50 51 50 51 51 47
33 33 34 31 27 28 29 31 32 31 31 30 29 30 30 29 30 31 34 34 33 30 27 32 33 34 36 38 42 44 46 46 47 49 49 49 50 51
32 30 27 25 24 25 29 33 35 32 28 25 24 26 24 24 22 25 27 30 30 29 24 29 29 27 31 33 36 40 43 44 44 45 47 47 46 47
30 25 21 20 21 25 29 28 25 21 19 19 19 19 19 19 19 20 21 24 25 25 19 25 26 26 30 29 31 33 37 39 42 43 43 43 43 45
24 21 20 19 21 24 21 18 15 11 9 9 10 12 14 16 16 18 19 20 23 23 19 24 24 24 26 26 25 27 33 36 41 39 41 44 43 43
20 19 19 19 20 17 13 10 7 7 6 6 7 8 12 14 16 17 17 19 21 21 20 23 21 19 21 25 24 26 29 33 38 40 48 45 42 41
14 14 14 15 17 12 7 6 7 6 6 5 6 8 9 10 9 10 12 13 15 14 15 16 15 15 16 19 22 25 29 33 40 44 41 43 40 40
11 11 10 12 15 11 8 8 7 7 6 5 7 8 9 10 9 8 7 9 9 9 11 12 12 13 15 16 19 23 26 32 37 46 50 46 44 40
10 9 8 9 12 16 16 12 10 9 6 5 5 4 7 8 10 8 5 2 5 6 7 10 12 13 13 13 13 14 22 29 33 37 42 46 49 50
11 10 8 9 10 15 15 15 15 10 6 4 4 5 5 7 6 8 9 8 7 7 8 6 7 10 11 13 13 14 15 18 25 34 37 39 41 44
11 9 9 9 11 11 12 12 14 14 13 7 4 5 4 3 3 2 1 2 2 1 2 4 4 5 7 9 11 12 12 15 19 25 30 34 35 37
10 10 9 10 11 12 12 12 12 13 14 15 12 5 7 5 3 3 3 3 3 3 3 7 8 9 11 12 12 13 12 13 14 15 19 24 27 33
9 9 8 9 9 11 12 12 13 13 13 14 15 14 4 5 6 5 6 8 9 9 10 11 13 14 14 14 14 14 13 14 15 13 15 17 22 29
8 8 8 9 11 10 11 12 12 12 12 12 13 14 14 7 3 2 4 6 6 7 8 10 10 11 12 12 12 13 13 12 12 15 19 20 21 24

GFSNE_700_spd_012.txt.gz
Wind_Speed
41 40 34 31 34 35 32 38 37 32 33 27 36 38 45 46 44 44 45 47 50 49 48 47 49 49 49 49 48 46 46 45 44 43 45 48 50 54
28 29 30 33 34 28 30 32 31 33 37 31 32 34 39 43 45 47 49 51 53 53 53 50 48 51 52 52 52 48 46 46 46 45 44 46 50 50
31 31 31 33 33 35 34 31 32 32 35 36 37 37 38 41 43 46 48 50 51 56 54 52 51 49 51 52 52 51 48 47 47 46 44 45 50 48
31 33 33 32 34 36 36 36 35 35 37 39 38 38 40 42 43 43 44 47 48 49 55 55 52 51 50 52 53 52 50 48 48 49 46 46 51 53
35 35 36 36 36 36 36 37 37 37 38 40 40 39 41 41 41 43 43 43 45 46 48 50 48 47 50 52 53 54 53 50 49 50 49 48 50 56
38 35 34 33 34 33 35 37 37 39 39 40 42 42 42 41 41 43 44 43 43 43 46 47 49 48 49 50 53 54 54 54 52 51 50 49 47 53
35 34 34 35 34 36 38 38 38 39 40 40 39 41 40 40 41 42 45 44 45 44 45 46 48 49 49 50 50 53 55 55 56 55 52 51 48 46
35 34 34 35 35 36 37 37 36 37 38 39 40 41 40 39 38 38 39 40 42 40 43 45 46 46 47 48 49 50 52 55 56 57 58 57 53 48
32 32 33 33 34 35 34 33 33 34 35 35 37 36 36 36 36 38 39 39 39 37 36 39 40 43 44 46 49 48 48 49 53 56 55 57 57 53
33 33 33 32 31 31 32 31 31 32 32 32 34 33 33 33 34 35 36 37 38 37 37 39 36 38 41 43 46 46 45 47 50 53 55 54 53 52
33 32 31 30 29 29 29 29 29 28 30 34 34 32 30 28 27 30 32 33 34 34 34 36 35 35 35 39 41 42 44 45 46 49 51 51 51 51
30 28 28 27 25 25 26 27 28 29 30 28 27 25 23 22 23 26 25 28 29 28 27 29 30 30 32 33 34 36 41 43 44 45 46 47 49 48
28 25 23 22 21 21 23 25 25 22 20 18 15 16 17 18 19 21 23 23 23 24 20 23 22 22 25 27 27 31 35 40 42 43 43 44 46 47
23 21 19 19 19 19 21 19 15 12 9 7 6 6 9 11 14 18 21 21 20 18 17 23 24 22 22 22 23 26 27 32 35 38 41 42 43 45
20 18 17 17 16 17 16 12 9 8 6 5 4 5 7 9 12 14 17 18 17 18 18 21 26 25 22 20 20 18 20 26 28 32 36 40 38 39
14 13 12 11 13 13 8 5 6 4 4 3 3 5 6 7 9 10 10 12 14 13 13 15 19 21 23 22 19 21 23 22 25 28 32 38 43 43
10 10 8 9 11 12 3 1 2 2 1 1 2 3 5 7 9 8 7 6 8 9 9 9 11 14 17 18 17 16 19 23 25 28 30 38 41 38
9 9 8 7 7 9 10 10 7 5 3 2 1 1 3 5 7 8 8 5 3 5 6 8 10 12 12 13 15 15 19 19 23 27 29 33 42 41
11 10 8 7 7 8 10 11 12 11 7 4 3 2 1 3 4 5 6 7 7 5 2 1 1 3 6 9 11 12 12 14 18 24 28 30 33 42
10 10 9 8 8 8 9 10 11 11 11 10 4 5 4 3 3 2 2 2 2 2 2 3 3 4 5 7 9 8 11 12 14 17 20 25 30 35
9 9 9 9 7 10 11 10 9 9 10 12 12 4 4 5 5 6 6 5 5 4 4 6 7 8 9 10 12 11 12 13 13 14 14 17 23 27
9 9 9 8 9 10 10 10 9 9 9 10 11 12 5 2 5 7 8 8 9 10 10 11 13 14 15 15 15 15 15 15 15 14 12 11 12 17
9 9 7 7 8 8 9 9 9 9 10 10 10 10 10 8 4 3 6 8 9 8 8 9 10 12 13 14 14 13 13 12 13 13 13 15 14 14

GFSNE_700_spd_015.txt.gz
Wind_Speed
36 36 33 32 31 36 28 32 34 35 37 43 39 40 30 26 27 36 44 46 48 47 46 43 43 44 46 43 41 39 38 36 36 40 42 42 43 45
27 29 29 29 28 28 30 30 28 30 35 32 36 42 37 33 24 33 40 39 40 40 42 39 41 43 46 47 47 46 44 43 41 41 43 45 44 43
29 28 29 29 29 29 28 26 25 30 29 28 28 30 33 34 34 36 39 42 42 43 45 46 46 46 47 48 49 50 49 48 46 45 45 46 46 45
30 28 32 32 33 33 33 32 31 29 29 33 32 33 34 34 35 36 37 35 37 37 44 48 50 50 47 47 48 50 53 52 50 48 47 48 49 48
35 35 37 37 36 36 36 36 35 32 34 37 39 34 35 35 36 37 37 37 36 33 39 44 47 48 47 45 47 49 51 53 53 51 49 49 51 50
36 37 36 35 34 34 34 35 36 37 38 39 40 38 35 33 34 36 37 37 38 32 33 37 43 46 49 49 50 51 53 53 52 52 50 50 51 52
35 35 34 32 35 33 35 36 37 38 38 39 41 39 33 28 28 29 32 33 35 37 38 39 39 40 46 48 48 49 51 53 53 54 53 52 53 53
34 34 34 35 35 35 34 35 35 36 37 38 39 40 40 38 38 39 40 40 41 39 38 39 41 44 45 45 44 48 50 53 53 54 55 55 54 55
36 35 34 32 33 34 34 37 35 34 34 34 37 36 37 36 37 37 38 40 41 38 38 38 36 39 39 41 44 46 46 47 48 49 51 53 56 57
36 34 33 32 31 32 32 34 33 32 32 30 32 31 33 33 34 35 37 39 39 38 37 39 36 37 39 38 38 40 44 45 45 46 47 49 52 57
33 31 29 28 28 29 31 31 30 28 27 28 31 32 33 34 34 35 35 35 35 33 31 34 34 37 36 37 37 37 38 42 44 43 43 45 47 51
30 28 26 26 25 26 26 26 26 25 26 28 29 29 29 26 25 28 27 29 28 27 23 25 25 25 28 29 29 31 33 37 39 40 41 42 43 46
29 25 20 21 23 22 22 23 24 23 23 20 18 15 13 13 15 18 21 22 23 24 21 24 21 21 21 23 22 19 19 25 31 34 37 39 40 42
25 22 20 20 21 21 20 20 20 16 12 10 9 7 7 8 9 12 16 18 20 22 19 20 24 23 22 22 21 19 18 19 18 27 31 35 38 39
21 20 19 17 16 15 16 14 10 8 8 8 8 7 7 9 10 12 14 17 19 19 17 17 23 22 25 24 22 19 19 16 21 23 24 29 32 35
17 15 14 12 11 13 9 4 4 5 7 6 5 5 5 5 6 8 9 10 11 11 11 12 16 21 26 26 24 21 20 20 19 19 21 22 24 30
14 12 10 9 10 12 10 4 3 4 4 4 5 3 2 4 6 7 8 6 5 7 8 8 9 11 12 15 18 19 17 14 15 17 20 19 22 27
12 11 10 9 8 8 7 4 1 1 2 3 3 3 2 3 4 6 8 8 2 2 5 6 8 9 8 9 10 12 16 18 16 14 18 19 20 21
12 11 10 9 7 6 6 7 7 8 5 2 5 5 4 2 2 2 3 4 5 5 4 1 2 3 6 7 12 12 12 12 12 14 15 19 18 21
12 11 10 9 7 6 8 9 8 8 8 8 3 6 7 6 5 5 5 4 3 2 4 3 3 3 5 6 10 10 9 10 11 11 13 16 15 17
12 11 10 9 6 8 9 8 8 8 8 9 10 5 4 7 7 7 8 7 8 9 7 7 7 8 8 9 11 13 11 13 11 11 11 12 13 14
11 11 10 7 8 7 7 8 8 8 8 8 8 10 7 3 6 7 9 10 10 12 13 13 13 14 14 15 16 16 15 14 14 13 13 12 11 13
11 9 8 6 6 6 7 7 7 7 6 7 7 8 7 7 5 4 5 7 8 11 11 11 12 11 12 13 14 15 15 14 14 14 13 13 14 13

GFSNE_700_spd_021.txt.gz
Wind_Speed
38 35 28 29 29 26 20 27 28 30 27 21 25 24 25 37 42 43 35 50 53 54 52 49 39 42 43 42 42 43 46 47 46 44 43 43 44 44
30 30 31 31 28 31 26 26 28 29 34 29 24 22 20 24 34 47 31 34 42 49 44 44 45 54 51 51 44 46 50 50 49 48 47 44 42 42
30 27 25 25 32 33 28 27 26 25 32 35 32 28 25 23 24 21 25 27 31 44 40 39 40 46 43 48 54 50 52 50 52 51 49 48 44 41
32 30 33 34 33 32 35 36 34 36 38 41 40 35 30 28 29 28 25 27 29 27 30 37 41 43 44 42 44 48 53 53 52 53 53 52 51 46
33 34 36 35 33 33 34 35 36 35 36 37 38 37 35 29 30 31 32 31 32 33 33 33 38 42 42 39 40 43 48 49 51 53 55 55 54 53
33 34 34 34 34 33 34 34 34 33 34 34 35 36 34 29 30 31 31 32 32 34 37 38 38 39 41 41 40 40 45 48 51 52 53 55 56 56
38 38 37 37 35 35 36 36 35 35 35 33 33 33 32 29 29 29 31 31 31 31 33 34 37 39 41 41 39 40 43 47 51 53 55 56 56 57
43 42 40 37 36 35 37 36 36 36 36 35 33 32 29 29 29 31 32 33 32 30 33 32 32 30 31 35 38 39 41 43 45 48 52 54 55 55
39 39 37 34 32 31 32 33 33 35 35 37 37 31 30 27 29 30 32 33 35 34 35 37 37 39 37 37 39 40 41 42 43 45 45 48 52 54
37 34 33 31 29 28 28 29 29 29 31 33 33 30 30 26 28 30 30 32 35 33 33 37 35 38 38 39 41 42 43 44 45 45 45 47 49 51
34 32 29 27 25 24 25 26 25 24 25 27 28 28 28 25 23 25 26 30 31 30 30 36 32 34 35 37 38 40 41 41 43 43 43 44 45 47
26 23 21 21 21 20 23 21 22 21 23 23 23 23 23 22 22 24 25 27 28 30 25 33 30 30 32 29 29 31 35 37 39 40 40 40 40 42
26 24 21 18 17 18 20 20 19 19 18 18 18 18 18 16 13 10 9 11 12 12 10 16 17 20 24 23 22 23 26 27 30 31 33 34 35 38
26 23 21 19 17 15 15 15 16 15 13 12 11 9 9 9 10 10 9 10 11 10 8 10 15 16 17 19 19 19 20 19 22 22 23 24 27 29
23 22 20 18 16 14 15 16 12 8 7 5 6 6 6 7 7 8 8 8 9 11 10 14 16 17 17 19 17 22 22 20 21 20 19 18 20 23
20 19 18 17 17 15 13 12 8 5 3 3 4 4 3 3 4 4 4 8 9 6 5 5 7 9 11 14 16 17 22 23 23 25 24 22 20 21
20 18 17 17 16 13 12 10 7 4 3 3 2 2 3 3 2 2 2 5 2 3 2 1 1 1 2 2 5 9 15 20 23 25 25 23 21 21
19 18 17 17 16 13 12 13 13 11 6 4 4 6 6 5 4 2 1 5 5 4 3 0 2 2 2 5 2 4 2 3 8 13 18 21 18 18
19 18 17 16 14 11 11 13 13 12 9 6 6 9 9 8 6 5 4 2 2 3 3 2 4 2 5 7 5 5 5 6 7 10 13 18 21 17
19 17 16 14 10 9 10 12 12 11 10 10 9 4 10 10 9 8 7 7 7 6 3 4 4 4 4 5 6 5 7 6 6 6 9 11 12 17
20 17 15 12 8 7 8 10 11 10 9 9 9 9 5 6 10 11 10 10 10 10 10 10 10 10 11 12 12 11 11 10 10 10 11 12 12 12
21 18 15 13 10 8 8 9 10 10 9 8 7 7 6 6 4 5 7 8 10 11 12 13 12 12 11 13 15 14 12 14 14 13 13 13 15 16
20 19 16 13 12 11 10 9 10 10 9 8 7 6 6 5 4 2 3 2 3 4 5 7 9 10 11 12 12 12 10 11 12 13 13 12 14 15

GFSNE_700_spd_024.txt.gz
Wind_Speed
37 33 29 26 25 29 30 25 22 27 26 28 29 27 26 26 28 32 37 45 52 43 46 42 50 55 56 56 52 50 48 45 43 42 43 40 41 43
33 32 30 28 26 27 29 31 33 30 34 33 29 33 26 23 24 25 25 33 40 34 45 50 49 48 42 42 44 51 51 47 46 46 45 44 42 41
34 32 31 31 31 33 34 34 35 37 38 36 32 33 33 33 31 29 27 21 27 29 37 44 47 54 52 49 53 54 53 49 49 48 48 46 47 44
31 32 33 35 36 36 36 36 37 39 41 42 41 41 40 38 36 33 30 30 27 24 28 39 45 56 56 56 51 49 54 54 53 53 51 52 54 51
34 36 38 38 38 37 37 37 37 37 38 40 39 38 37 35 35 35 35 34 33 31 27 28 27 30 36 51 42 43 45 48 54 56 57 56 58 57
38 40 42 42 42 41 41 40 40 39 38 39 39 38 36 33 30 33 34 33 33 32 33 32 33 31 33 36 39 38 44 47 48 47 54 59 61 60
43 42 42 42 41 40 40 40 40 38 37 37 38 38 35 32 29 29 33 34 32 31 32 34 34 35 36 38 41 42 46 46 49 48 52 57 61 61
43 41 41 41 40 38 36 36 37 36 36 37 38 38 33 31 29 29 31 32 32 31 33 34 37 37 38 38 39 42 45 44 45 46 49 51 54 56
42 43 41 38 36 34 31 30 31 31 33 34 36 35 34 31 30 29 29 31 31 29 34 35 38 40 38 39 39 41 44 45 46 48 50 53 54 54
40 36 34 32 29 27 26 25 26 26 27 30 31 30 30 28 29 28 29 31 32 30 30 36 34 38 39 41 41 42 43 43 44 48 51 52 52 54
31 28 30 29 26 24 22 23 23 20 22 24 25 26 26 25 25 27 26 28 27 25 27 33 30 33 36 39 40 42 43 44 45 46 49 49 50 51
25 24 25 24 22 21 21 21 20 17 20 21 22 24 24 22 22 21 20 22 23 25 22 32 28 31 33 31 31 34 38 40 41 42 44 46 46 47
27 27 24 21 19 17 17 18 17 14 13 14 15 17 17 18 17 16 15 13 11 9 14 20 20 23 28 27 29 33 34 35 36 38 39 40 40 41
26 26 24 22 20 18 16 16 16 15 11 9 8 8 9 9 9 10 11 11 10 8 11 12 13 15 16 17 18 21 26 27 28 28 31 33 34 35
24 25 23 22 20 18 16 16 14 10 7 5 4 5 6 6 7 9 11 11 10 8 9 14 15 16 16 16 16 18 22 25 26 25 27 28 28 30
22 23 22 21 21 18 15 15 11 7 4 3 2 2 2 3 4 4 5 6 9 8 5 5 8 10 11 12 14 16 20 25 27 26 25 25 25 26
23 22 22 21 19 15 12 12 12 9 5 2 0 2 3 2 3 3 1 4 2 3 5 4 4 4 5 6 6 9 14 17 22 26 27 26 27 27
23 22 21 21 17 14 11 14 13 11 9 3 2 3 4 5 6 3 1 3 5 5 2 2 2 6 5 6 6 2 2 6 10 13 17 21 21 25
24 22 20 19 16 13 12 13 14 12 10 9 5 6 8 9 8 6 5 5 3 3 3 4 3 3 6 10 5 6 6 7 8 9 9 9 14 18
24 21 19 17 15 13 11 12 13 13 11 9 8 5 6 10 10 10 9 9 9 6 6 6 5 5 7 9 8 7 8 9 9 9 10 10 11 13
22 21 19 17 15 13 12 11 12 11 10 9 8 7 6 2 6 10 12 12 11 10 10 11 11 11 12 12 12 11 11 12 13 14 13 13 13 13
20 20 20 18 16 15 13 12 11 13 12 10 9 7 6 5 3 3 6 9 11 12 13 12 13 14 13 13 14 14 14 15 17 18 17 17 16 17
19 19 18 18 17 15 14 13 12 10 11 11 9 8 7 6 4 3 3 3 4 5 6 5 7 9 11 12 12 12 12 13 13 14 16 16 17 17

GFSNE_700_spd_030.txt.gz
Wind_Speed
34 35 37 38 36 33 33 33 36 42 40 34 35 36 35 35 27 31 31 28 28 27 29 37 45 52 56 49 47 45 52 48 49 46 43 43 46 46
35 36 39 38 37 35 35 36 38 40 47 41 36 37 37 36 36 36 33 32 31 32 30 31 37 41 55 62 49 51 60 57 52 52 47 46 41 39
36 40 38 38 38 37 38 40 42 42 47 46 42 38 38 37 37 38 38 37 34 36 34 31 33 38 47 41 43 53 52 47 46 46 46 45 42 40
39 39 37 37 40 41 43 43 42 41 42 44 40 38 39 38 37 36 33 35 41 40 37 36 33 32 33 38 44 39 45 55 45 48 38 39 42 44
37 36 38 40 43 44 44 44 42 41 41 41 40 38 37 37 37 37 33 32 35 37 39 42 38 35 27 35 38 42 40 43 41 52 51 42 47 48
34 37 40 43 44 44 43 41 38 36 35 35 35 36 35 33 35 35 34 32 31 31 31 33 38 36 32 32 34 38 40 40 42 42 49 50 42 40
36 38 42 44 42 39 36 35 36 35 34 33 31 30 30 30 30 32 33 31 30 29 28 29 32 34 35 35 30 33 34 38 40 41 49 52 54 45
37 39 42 40 34 33 33 33 32 32 31 29 27 26 27 27 27 28 30 30 29 26 28 26 28 29 30 31 34 34 33 32 35 36 41 42 46 46
38 40 41 34 32 34 33 31 29 27 27 26 24 24 23 22 22 25 27 28 28 27 28 26 26 27 29 29 30 31 34 36 37 40 41 44 50 49
37 39 37 31 31 31 31 30 27 24 22 23 24 24 23 21 19 20 22 24 24 23 27 27 25 26 30 32 32 32 32 35 38 40 41 41 44 45
36 38 35 30 29 29 29 28 27 23 19 18 20 21 19 18 19 19 17 18 18 19 24 25 24 26 30 33 35 35 34 32 32 34 35 36 39 42
34 35 32 29 28 28 28 28 25 21 19 17 17 16 15 12 14 16 15 17 16 17 19 21 23 26 28 29 32 34 35 35 35 35 35 36 36 36
34 34 30 27 26 26 26 24 23 22 17 14 9 9 9 9 7 9 12 14 14 14 12 17 19 21 22 23 28 32 34 34 35 36 37 37 37 38
32 32 31 27 24 24 23 21 20 19 15 11 8 7 6 5 4 4 4 5 7 8 9 9 9 12 15 19 22 26 28 29 31 32 34 35 36 38
31 30 30 27 23 22 22 20 19 19 14 9 7 6 5 4 3 3 3 1 3 6 8 9 9 10 10 9 12 14 18 22 25 26 28 29 30 31
27 27 29 27 23 21 19 18 20 19 14 9 7 5 4 3 3 4 1 2 3 6 7 9 10 11 11 10 10 11 12 14 18 22 25 26 28 28
26 25 26 25 21 19 20 18 17 18 16 12 7 5 2 2 2 3 3 6 4 0 3 2 2 3 5 7 9 11 13 14 16 17 17 19 21 23
26 24 25 25 22 19 17 17 16 16 16 13 11 6 5 3 1 3 3 4 3 4 3 4 3 2 3 3 5 6 5 5 7 10 12 15 18 20
26 24 23 23 23 21 18 17 16 14 15 15 13 10 6 8 7 4 4 4 2 3 3 3 2 2 3 5 6 4 2 2 3 3 3 5 9 16
25 24 22 22 22 21 20 18 16 16 14 15 14 13 11 9 7 8 8 7 6 6 7 7 6 5 5 6 8 9 7 5 6 6 5 5 7 9
23 23 22 21 21 21 21 20 18 16 14 13 13 13 12 11 9 6 8 11 10 10 10 10 9 9 8 8 8 9 10 9 8 8 8 9 9 9
20 21 22 22 20 20 21 20 19 18 17 15 14 12 12 10 9 8 7 6 7 9 10 12 12 13 13 13 14 14 15 15 14 14 14 14 14 15
18 18 20 22 22 21 20 20 20 19 17 15 14 13 11 11 9 8 7 6 5 4 4 6 8 9 10 12 13 14 14 14 14 14 14 13 13 14

GFSNE_700_spd_033.txt.gz
Wind_Speed
35 31 30 32 35 40 39 38 40 45 45 40 39 35 35 33 34 37 39 37 33 32 27 26 26 28 36 46 46 56 59 55 56 49 48 45 41 48
31 30 33 36 40 39 38 38 40 44 51 46 43 40 38 36 36 34 37 38 39 36 32 28 27 27 28 37 41 44 48 58 48 51 45 46 44 40
30 34 36 39 38 37 39 41 43 44 47 45 43 40 39 38 36 35 37 36 36 39 43 38 32 30 29 30 43 49 38 47 48 48 41 45 44 41
33 35 36 36 37 39 41 43 44 43 43 42 39 38 37 37 38 35 35 36 35 35 38 41 40 35 34 30 29 38 56 46 44 37 35 41 38 41
31 32 34 36 37 40 42 43 40 37 36 38 37 35 35 34 34 34 34 35 35 34 33 35 38 40 37 32 28 29 38 39 42 45 39 35 39 40
29 32 34 36 39 41 40 35 34 36 35 36 34 32 31 30 29 30 30 31 33 33 31 31 33 35 35 36 30 28 29 32 34 39 41 44 41 38
30 32 34 36 38 37 33 32 34 34 33 33 32 30 27 25 25 24 27 29 31 30 29 29 29 29 30 30 30 29 30 33 31 30 38 40 47 43
33 34 34 35 36 31 29 30 32 31 30 29 29 27 26 21 21 20 23 27 29 27 27 27 27 27 26 25 27 30 29 32 36 36 41 43 40 43
33 34 33 34 35 32 29 30 30 28 27 26 27 26 24 22 21 19 19 23 25 25 27 27 25 24 24 23 25 26 32 30 32 33 37 37 40 47
33 33 33 34 34 31 30 30 30 28 25 23 21 21 20 21 22 19 17 18 19 20 22 26 25 24 26 26 26 26 27 31 34 33 34 35 38 40
32 32 33 33 33 30 29 30 29 24 23 22 21 21 18 15 15 17 17 16 15 15 18 21 21 24 28 27 26 27 27 26 28 35 37 36 36 34
31 31 31 32 31 28 27 28 25 23 22 18 16 14 11 10 9 11 13 15 15 13 15 17 17 21 23 24 25 26 28 29 27 27 30 36 37 38
31 30 29 30 28 26 24 23 22 22 20 17 13 10 9 9 7 5 6 9 12 11 12 16 15 17 18 21 24 26 27 28 30 30 30 30 30 31
29 29 28 27 27 24 21 20 21 21 19 14 11 9 8 6 5 4 4 3 4 6 10 9 7 9 12 16 19 22 24 26 29 30 31 31 32 32
28 28 27 26 25 23 20 20 19 20 19 13 10 8 6 5 5 6 6 3 2 6 7 7 5 6 7 6 10 14 18 22 24 26 28 30 31 33
26 26 25 25 25 24 21 20 19 17 17 15 9 6 4 2 3 3 4 5 2 3 4 7 6 8 9 7 9 9 11 13 18 21 24 26 27 28
25 25 23 23 23 22 21 19 18 17 17 15 13 7 4 2 1 1 2 5 5 1 8 0 3 3 7 8 10 11 10 10 11 13 15 18 21 23
23 23 23 21 21 20 20 19 17 16 15 15 13 11 6 5 5 2 1 2 4 4 4 6 5 4 4 5 9 10 9 9 9 10 12 15 16 18
21 22 22 21 20 20 20 20 18 17 15 13 14 12 11 7 7 8 5 2 2 5 5 6 5 6 2 4 7 8 8 6 5 5 6 10 15 18
18 19 20 21 20 19 19 19 19 18 16 15 13 13 12 10 8 5 8 7 6 6 7 8 8 7 6 7 9 9 7 5 7 7 8 7 8 8
16 17 18 19 20 20 19 19 18 18 17 16 14 13 12 11 10 8 6 5 8 9 10 10 10 10 9 9 9 10 10 8 7 7 8 10 9 9
15 15 16 17 18 19 20 19 19 18 18 17 16 15 13 11 11 9 8 6 5 5 9 11 12 12 12 11 11 11 12 12 12 12 13 13 13 13
15 15 15 16 16 18 19 20 19 19 17 16 16 15 14 13 11 10 8 7 6 5 4 4 6 9 11 12 13 13 14 14 14 14 15 15 15 15

GFSNE_700_spd_036.txt.gz
Wind_Speed
29 23 31 33 34 38 39 37 36 42 41 37 36 34 35 37 39 41 38 37 39 41 40 37 32 30 27 28 36 47 55 59 52 47 58 56 52 51
26 29 29 30 35 39 34 34 32 35 43 40 36 34 34 35 36 39 37 36 37 39 40 39 39 33 30 27 27 37 50 48 55 57 55 53 51 50
30 29 30 33 36 35 33 33 32 32 37 43 36 34 36 36 35 36 36 33 31 32 38 40 38 39 35 29 26 29 43 59 45 52 47 52 50 50
27 29 31 32 34 35 35 35 38 41 42 41 37 38 39 37 37 37 35 32 30 27 36 40 35 38 40 37 29 27 33 51 54 31 39 46 42 44
27 29 30 32 33 35 37 40 42 40 36 37 38 38 37 34 33 32 32 30 28 29 33 38 34 35 36 39 39 33 33 39 55 45 28 44 52 46
26 28 30 32 34 36 37 38 38 34 34 35 36 36 33 28 25 25 24 22 21 23 24 31 31 32 32 32 33 37 35 32 30 31 40 33 42 43
26 29 32 33 34 34 35 35 32 31 32 34 35 32 27 22 21 22 22 21 22 24 24 27 24 22 22 29 29 31 36 31 28 28 33 34 36 42
27 29 32 34 33 32 32 32 30 30 31 32 32 31 28 24 24 19 22 20 20 19 18 22 23 24 18 22 28 26 30 30 28 30 31 36 36 46
27 30 31 32 32 31 32 30 27 28 30 30 29 26 24 22 21 21 21 20 21 18 19 23 24 21 25 21 24 24 26 29 30 30 33 38 40 44
28 30 31 30 30 31 31 28 26 27 26 25 26 27 25 21 20 21 21 20 20 18 17 23 23 26 26 26 24 24 26 29 32 31 32 40 52 43
27 29 29 29 29 29 29 26 25 23 23 24 23 21 18 16 14 16 17 17 18 12 12 16 16 20 23 25 23 22 24 27 32 33 33 36 41 34
26 27 29 28 28 28 27 24 23 22 22 20 17 16 12 11 12 11 12 13 15 14 9 15 12 11 16 20 21 21 23 26 28 34 36 35 36 33
25 26 27 27 26 26 25 22 22 22 22 18 14 12 10 9 8 8 10 12 11 11 13 17 13 12 12 16 17 20 22 25 27 29 34 37 36 34
23 25 25 25 24 24 23 21 20 20 20 18 13 10 8 6 5 7 8 7 9 9 10 10 9 8 8 8 12 17 20 23 26 28 29 32 34 36
22 24 24 23 23 22 23 21 19 19 17 18 13 9 6 4 2 6 6 5 5 3 2 3 4 5 5 8 6 10 16 20 24 28 30 31 32 32
20 21 22 22 21 22 22 22 20 19 16 16 15 9 7 5 3 2 2 5 3 3 4 6 5 7 5 6 8 8 8 9 18 23 27 30 32 33
18 19 20 21 21 21 21 21 20 19 18 15 16 13 8 7 5 5 3 2 1 2 3 2 5 7 8 8 7 7 8 11 10 16 21 24 27 29
16 17 17 19 20 20 19 20 20 19 18 16 14 14 12 8 8 7 6 4 1 1 3 3 2 3 2 6 11 8 8 9 10 11 15 15 17 22
15 15 15 16 18 19 19 18 18 19 18 17 15 13 13 11 8 8 8 7 7 6 4 6 6 7 1 2 4 9 10 9 9 8 13 17 18 17
15 15 14 14 16 17 18 19 18 18 18 17 16 15 13 12 10 8 6 9 9 10 11 10 9 10 10 7 7 9 10 8 8 9 9 10 13 16
16 16 15 14 15 15 16 17 18 18 17 17 16 16 14 13 11 9 7 5 8 11 12 13 13 12 10 9 9 11 11 9 9 10 10 10 9 10
18 17 16 16 15 15 15 16 16 17 18 17 16 16 15 14 12 10 9 6 5 4 9 12 13 13 13 12 12 11 12 12 12 11 11 12 12 12
19 19 18 17 16 16 16 16 16 16 17 17 16 16 15 15 13 11 10 8 6 4 3 4 8 12 14 14 15 15 15 15 15 15 15 15 15 15

GFSNE_700_spd_042.txt.gz
Wind_Speed
32 32 37 39 39 39 39 38 35 41 40 39 39 38 37 40 41 41 44 44 40 37 38 37 35 35 37 36 35 34 35 35 33 36 44 51 57 57
32 32 35 36 36 35 37 35 27 32 43 40 41 42 44 45 44 42 39 37 37 37 38 39 37 36 37 37 35 34 35 36 34 33 38 46 54 57
31 32 31 31 32 33 34 31 34 37 42 44 44 44 46 43 41 36 34 35 37 38 38 38 36 36 35 37 36 33 33 38 36 33 34 40 50 55
29 29 30 31 31 29 29 32 34 36 40 46 45 43 43 42 38 34 34 35 35 34 33 33 31 33 32 34 37 33 31 35 38 35 33 37 44 53
29 31 30 28 28 29 31 34 36 39 40 42 42 40 41 37 34 33 32 30 27 26 26 28 24 23 24 27 32 33 29 32 38 38 35 32 39 50
29 31 29 29 29 30 32 35 37 38 38 38 38 38 36 33 32 32 31 27 27 25 26 25 23 26 27 24 22 25 27 28 33 38 37 32 31 43
28 29 28 29 30 31 33 35 35 35 35 36 36 34 32 31 30 28 26 25 22 23 24 23 22 21 25 25 21 16 19 24 29 33 37 36 29 32
28 27 26 27 30 33 35 35 35 35 34 34 32 31 29 28 30 30 31 32 31 19 23 25 24 21 19 23 21 17 18 19 27 29 34 36 33 26
27 26 25 26 29 31 32 32 32 31 32 32 31 29 30 28 28 27 25 23 22 22 25 27 23 23 20 19 23 21 21 23 21 26 29 30 31 27
26 25 25 26 28 30 31 30 29 29 29 27 27 27 27 23 23 21 18 17 13 14 18 22 13 15 17 20 23 24 26 22 23 24 24 23 24 24
24 24 24 25 26 29 29 29 27 27 27 25 25 25 24 20 19 18 14 14 15 14 15 20 14 13 12 12 14 21 21 24 21 22 19 18 21 22
22 22 23 23 25 27 28 28 27 26 26 22 22 21 20 17 15 15 14 13 16 18 14 18 15 14 11 12 9 10 14 16 18 19 18 17 17 20
22 21 23 22 23 25 26 26 26 26 25 24 21 19 19 15 12 10 10 13 14 17 16 17 13 16 16 16 11 3 6 11 14 16 18 22 16 16
21 20 21 21 22 23 24 25 25 24 24 23 21 19 19 16 12 10 9 12 12 19 14 13 12 12 12 7 3 2 3 6 8 13 17 21 21 18
22 20 20 20 20 20 22 23 22 21 22 23 21 19 18 19 14 12 12 11 13 18 16 8 7 5 3 7 8 6 3 2 8 9 14 18 20 20
21 21 20 20 19 18 19 20 22 23 22 21 22 21 19 17 18 14 12 12 12 11 8 9 9 6 3 5 8 2 2 4 3 8 12 16 20 23
22 21 20 20 19 18 18 19 20 21 21 21 21 21 20 17 17 16 13 12 11 10 8 7 8 8 6 6 6 8 6 3 2 3 8 14 18 20
24 22 21 20 19 19 18 18 18 19 20 21 21 20 20 19 17 16 15 11 10 10 10 8 7 4 7 1 4 2 3 4 4 3 3 8 12 16
23 22 22 21 20 19 18 18 18 18 19 20 21 20 20 19 18 16 15 13 10 10 10 9 8 7 8 4 1 3 5 6 6 5 3 8 4 10
23 21 21 21 21 19 18 18 17 17 18 19 20 20 19 19 17 16 14 13 11 9 11 12 7 8 7 3 2 2 7 7 6 8 8 10 13 10
22 20 19 21 21 19 19 18 17 17 17 18 18 19 18 18 17 16 15 13 12 10 8 11 12 11 10 7 4 6 5 5 6 6 5 5 13 18
20 20 19 20 21 20 19 19 18 17 17 17 17 17 18 17 17 16 15 14 12 10 9 7 11 13 14 12 8 6 6 7 9 7 7 6 6 9
20 19 17 18 19 20 20 20 19 18 17 17 17 17 17 16 16 15 15 14 13 11 9 8 5 8 14 14 12 15 12 8 8 8 8 8 9 9

GFSNE_700_spd_045.txt.gz
Wind_Speed
38 36 34 35 37 37 35 35 41 43 41 37 34 36 39 41 42 42 39 40 41 42 40 38 37 36 36 37 36 37 34 34 36 36 36 37 40 51
36 34 33 34 36 35 38 40 39 38 37 35 36 39 41 43 43 42 41 41 40 37 35 36 37 38 38 37 37 37 36 33 34 37 37 37 37 42
33 32 31 31 31 31 30 31 31 32 35 38 38 41 42 42 40 39 40 39 35 34 34 35 37 37 37 37 36 36 38 37 35 37 39 39 38 38
32 31 29 30 29 29 28 29 29 31 35 40 41 40 39 38 39 39 37 34 32 33 33 33 32 32 31 31 33 35 37 35 34 36 38 40 40 38
32 32 31 32 30 29 27 27 29 32 36 39 40 38 38 36 36 34 33 32 31 31 32 31 30 31 27 26 28 27 29 32 34 34 37 40 41 39
31 31 31 32 30 28 26 28 31 33 35 36 36 35 33 31 31 32 31 28 28 27 27 25 27 28 25 23 26 26 24 23 28 32 34 38 40 39
30 30 31 30 29 26 26 29 32 34 34 35 33 32 30 29 29 29 30 29 24 27 27 26 28 25 25 25 25 25 22 22 20 26 30 34 37 39
30 30 31 28 25 24 26 30 33 35 34 34 33 31 28 27 28 28 27 27 22 16 19 20 24 26 25 25 23 23 22 20 18 22 25 28 32 36
29 31 29 27 22 22 26 28 29 30 32 32 31 29 28 26 28 24 22 22 19 11 17 15 15 19 20 24 23 22 23 22 21 20 20 22 26 28
30 30 28 25 21 22 25 26 27 28 27 29 30 28 27 26 25 23 21 19 15 11 17 21 16 16 15 13 18 19 23 24 22 21 24 21 22 22
30 28 26 24 21 22 23 24 25 25 25 26 27 25 25 25 24 21 19 16 13 9 12 21 19 19 13 12 13 16 18 23 26 28 20 15 15 17
27 26 24 22 21 21 22 23 24 24 24 23 23 23 23 21 21 19 17 13 12 6 14 27 19 19 15 12 14 13 13 17 20 21 15 13 15 13
25 23 23 21 20 20 20 21 23 23 24 24 23 22 21 20 19 16 16 14 14 15 17 20 22 16 18 18 11 9 6 7 13 12 12 17 13 13
24 23 21 22 21 20 20 20 21 22 23 22 22 22 21 19 17 17 15 14 14 17 21 22 13 13 13 13 9 7 13 3 4 6 11 21 17 19
23 23 21 21 22 19 19 19 18 19 21 21 21 21 22 21 19 18 14 14 14 15 15 8 10 11 10 8 9 10 5 4 2 6 10 19 22 18
23 22 22 22 22 20 19 17 17 18 19 21 21 21 21 22 20 18 17 12 12 12 11 7 10 14 11 9 8 4 0 1 2 4 9 16 23 23
25 23 20 21 22 20 18 18 16 16 17 18 20 21 21 20 21 19 17 15 10 10 11 11 13 13 9 6 5 5 4 2 3 4 4 14 20 23
25 23 22 22 21 20 18 17 16 15 16 16 18 19 21 21 20 19 18 16 12 11 10 8 5 7 11 2 3 2 3 4 3 2 4 9 17 21
25 23 23 22 21 20 18 18 16 15 15 15 16 17 19 20 20 19 18 16 14 11 10 7 5 6 7 0 0 2 7 2 4 3 2 6 9 17
23 22 20 21 20 19 18 18 16 16 15 15 15 16 17 18 18 18 17 16 13 12 10 9 6 5 3 2 1 1 3 5 2 2 3 7 9 8
23 21 18 18 17 18 17 18 17 16 15 14 14 15 16 16 16 17 16 16 15 12 11 9 7 8 7 5 5 5 3 2 3 3 2 3 13 11
21 21 19 17 15 15 15 15 16 16 16 14 14 14 14 14 15 15 16 14 13 12 10 9 5 6 9 7 8 5 3 4 4 4 4 4 4 12
22 20 19 16 15 14 14 14 16 16 16 15 15 14 13 13 14 14 14 14 13 11 10 8 7 5 8 8 11 11 9 8 5 5 6 7 10 6

GFSNE_700_spd_048.txt.gz
Wind_Speed
39 40 39 37 38 37 36 36 36 39 38 37 34 35 35 36 38 40 43 44 46 45 44 42 43 43 39 37 36 36 36 37 37 33 34 39 43 44
38 38 37 36 34 33 32 32 33 34 35 35 35 35 37 39 42 44 44 44 43 41 41 39 39 39 36 36 37 37 37 37 38 37 35 35 40 44
36 35 35 34 33 31 30 30 31 33 34 35 35 37 40 42 42 41 41 41 40 38 36 35 34 35 36 37 38 39 39 39 39 39 38 38 37 42
35 35 34 33 31 29 29 29 30 30 32 35 37 38 40 40 41 39 36 36 36 33 33 32 32 34 36 36 37 36 36 37 39 40 42 40 39 40
36 35 34 33 32 31 31 29 27 28 32 35 38 37 38 37 36 35 33 30 30 31 31 31 31 32 31 31 33 32 31 32 32 36 41 41 40 41
35 34 33 33 32 32 30 28 29 30 32 34 35 35 33 31 32 32 29 29 26 25 29 29 29 30 30 29 29 29 30 29 29 28 29 35 38 42
35 34 34 34 31 30 29 28 29 30 31 33 34 33 32 30 30 28 29 29 20 25 25 22 26 25 27 28 28 29 30 28 30 31 28 29 34 39
33 34 33 33 30 28 27 28 28 30 31 33 33 32 31 30 27 27 28 26 21 19 22 17 19 19 22 25 27 28 29 27 28 25 26 28 28 33
33 33 32 30 29 27 26 26 26 28 31 31 31 30 29 28 27 25 24 23 21 16 22 16 15 18 19 21 22 21 24 24 28 26 23 22 23 27
32 31 30 30 29 27 25 24 24 25 27 29 29 28 29 27 27 26 24 20 16 13 18 17 16 19 19 19 17 18 19 21 24 26 27 24 23 25
32 31 29 29 29 26 24 23 22 23 24 26 27 27 27 27 27 26 25 20 14 7 12 16 18 21 22 16 17 18 20 21 22 24 27 25 24 23
31 30 29 29 28 25 24 22 21 21 22 23 24 25 25 25 25 25 25 20 16 11 13 18 20 24 25 14 14 18 19 19 17 20 23 27 24 19
30 29 29 29 26 25 23 21 21 20 20 21 23 24 24 24 23 23 23 23 18 16 15 20 23 21 20 21 13 16 18 16 15 12 15 17 17 16
30 28 28 28 26 25 23 21 20 19 19 20 21 22 22 22 22 21 20 22 20 17 15 15 18 18 19 18 16 11 13 14 6 6 13 14 20 9
30 29 27 26 26 26 24 21 20 19 19 19 19 19 21 22 21 21 20 20 18 16 16 13 15 16 20 20 14 11 9 3 4 2 7 15 22 10
29 29 27 25 25 26 25 22 21 20 19 18 18 18 19 21 22 21 19 17 18 15 16 15 16 19 19 16 11 7 5 6 5 6 7 13 19 13
30 29 26 24 23 24 26 23 22 20 19 18 17 17 18 19 21 21 20 18 17 13 13 15 15 14 13 13 5 3 5 8 6 9 4 12 16 15
31 28 25 24 24 24 23 22 21 19 18 18 17 17 17 17 19 20 20 19 16 15 10 8 9 8 9 9 3 3 5 7 4 5 2 10 15 14
31 27 25 24 24 24 22 21 20 19 19 18 16 16 16 16 18 19 19 17 16 15 13 7 7 5 3 2 3 1 2 7 6 3 5 2 13 16
28 27 25 24 24 22 21 19 19 19 19 17 16 15 15 15 16 17 17 17 15 14 12 10 6 7 5 5 3 4 5 6 3 3 0 3 4 11
25 25 24 22 23 21 19 18 18 18 19 17 16 15 15 15 15 15 15 16 15 14 12 10 7 7 8 7 5 5 7 4 3 3 1 2 4 3
25 23 22 22 21 20 18 16 16 17 18 17 16 15 14 15 15 13 13 13 14 13 12 10 8 4 6 8 8 6 4 3 4 4 3 2 5 8
28 22 21 22 22 20 18 16 14 14 15 16 16 16 15 14 15 13 12 12 12 12 11 10 8 5 2 8 10 9 7 7 6 4 5 6 6 7

GFSNE_700_spd_051.txt.gz
Wind_Speed
45 41 42 42 40 39 37 37 39 41 41 37 36 35 36 36 35 36 39 41 44 45 46 46 47 47 46 45 44 42 40 39 37 36 34 32 33 37
42 43 41 40 39 37 36 36 37 38 38 35 35 36 36 37 39 41 44 45 45 44 43 42 41 42 42 41 39 37 35 35 34 35 35 33 35 37
45 38 39 39 38 36 35 34 34 35 35 33 34 35 36 39 42 43 44 43 41 40 39 37 37 37 38 36 35 34 34 34 35 36 37 37 35 38
34 37 39 38 37 36 35 34 33 34 34 34 32 34 36 39 42 43 39 38 37 35 34 34 33 33 34 36 35 36 36 36 37 38 39 41 40 40
36 38 38 37 35 35 35 34 34 32 32 31 31 34 36 37 38 37 35 32 30 31 34 35 33 31 31 33 33 33 33 33 33 35 36 38 41 41
39 40 38 37 35 35 35 34 33 32 31 30 31 34 35 34 34 35 31 30 28 28 30 30 29 27 26 28 30 30 31 31 30 32 34 35 36 39
38 38 38 37 36 35 34 33 32 31 29 29 31 33 33 33 33 32 31 29 26 25 27 22 27 24 23 24 24 24 26 28 28 28 30 32 34 34
38 38 36 36 36 34 32 32 31 30 28 29 30 31 32 32 31 32 30 29 25 20 25 15 22 18 21 23 24 24 24 24 28 28 28 29 31 35
37 37 36 35 34 33 31 31 30 28 28 28 29 30 30 31 30 29 28 27 25 20 24 15 16 13 18 21 23 24 22 21 22 24 26 28 29 27
38 37 35 34 32 32 30 29 27 25 26 27 28 28 29 28 29 29 27 26 23 19 22 16 12 17 19 23 24 23 20 20 21 22 25 26 29 30
38 37 35 33 31 30 29 28 25 24 25 26 27 27 27 28 29 29 28 28 23 18 16 21 17 21 21 20 21 20 20 21 22 23 24 26 26 29
38 36 34 33 31 30 29 28 25 24 24 25 25 25 26 26 27 27 28 28 24 20 15 20 16 22 19 19 18 17 20 23 24 24 21 21 24 26
38 34 33 33 30 28 29 27 25 24 23 24 23 23 24 25 24 24 26 28 26 23 18 22 17 17 19 23 20 18 18 19 23 23 22 18 19 23
38 34 32 31 30 28 28 26 25 25 24 23 23 22 23 24 23 22 23 24 25 24 20 19 18 17 19 22 26 16 14 16 15 15 13 11 12 15
37 33 31 30 29 27 27 27 27 25 24 23 23 22 22 23 23 21 21 23 24 24 23 18 18 16 19 23 25 17 9 11 15 11 12 9 8 13
36 33 31 30 29 27 26 26 28 26 25 23 23 22 22 21 22 22 21 21 21 19 23 18 16 16 16 15 20 11 8 11 12 13 13 8 7 15
38 34 30 29 27 27 26 26 27 27 25 24 23 22 22 21 21 21 20 21 21 20 16 18 16 14 13 13 13 10 9 11 11 13 14 6 5 14
36 35 30 27 27 27 27 26 25 25 24 24 23 22 21 20 19 19 19 20 21 19 16 15 12 12 10 10 8 7 10 6 6 9 13 8 3 6
36 34 31 27 27 26 27 26 24 23 24 22 23 21 20 19 18 17 17 19 19 18 17 14 11 9 8 5 5 6 10 8 7 8 10 10 3 11
34 34 29 27 24 25 25 24 23 22 21 21 22 21 20 18 17 16 16 18 17 16 15 14 12 9 9 8 5 6 9 11 8 8 8 8 5 3
34 34 25 23 23 22 24 22 22 20 20 21 21 21 20 18 16 14 14 17 16 16 14 13 11 8 8 9 8 8 7 7 7 8 6 6 2 1
28 23 22 24 23 22 22 22 21 20 19 20 20 21 21 18 16 14 14 15 15 15 13 12 10 8 6 10 9 9 7 6 9 6 6 5 3 3
27 27 27 24 22 20 21 23 21 19 18 17 18 20 20 18 16 14 13 15 14 13 13 12 10 8 7 9 10 8 8 7 7 6 6 5 4 3

GFSNE_700_spd_054.txt.gz
Wind_Speed
43 45 46 45 46 40 39 40 40 42 43 41 39 39 37 36 35 34 34 35 38 40 42 42 43 43 45 45 45 43 43 42 41 40 39 39 38 39
45 45 44 41 38 39 39 39 39 40 42 40 38 38 37 36 36 36 37 39 41 42 43 42 40 39 39 40 40 39 38 37 36 35 35 35 34 34
44 40 36 37 38 40 41 40 38 38 39 37 36 36 36 35 35 37 38 40 40 40 40 38 36 35 35 35 35 34 33 33 32 31 32 33 33 32
34 34 35 38 39 40 40 39 38 38 38 37 35 34 33 33 35 36 37 38 38 37 36 34 32 31 31 32 32 32 32 31 31 32 33 34 34 34
33 35 38 39 40 40 39 37 37 37 37 37 35 32 30 31 33 34 34 34 34 34 32 31 31 29 28 28 28 27 27 28 29 30 31 32 34 36
35 37 38 39 39 39 38 37 37 36 36 35 34 31 29 31 32 33 31 32 31 30 27 31 29 28 26 25 25 26 25 26 26 28 30 32 33 34
36 37 39 40 40 40 39 37 37 36 35 34 32 30 29 29 30 31 33 30 29 28 25 29 25 26 23 24 23 23 23 23 22 23 25 27 29 30
37 38 39 40 40 39 38 37 36 35 35 34 31 29 27 28 29 31 32 32 29 27 25 21 22 21 20 19 20 21 24 25 23 22 23 25 27 29
39 39 41 41 41 39 37 36 34 33 33 32 29 27 26 27 28 29 30 30 28 26 27 23 19 17 16 18 21 24 25 24 22 20 20 20 24 27
40 41 42 41 41 39 37 35 32 32 32 30 28 26 26 26 27 28 28 30 28 27 25 28 20 18 17 19 22 21 24 23 21 20 20 22 24 27
42 43 43 42 40 38 36 33 32 30 30 28 27 25 25 25 26 26 27 30 29 25 22 28 24 22 18 15 15 17 22 22 21 21 22 23 24 27
44 45 43 42 39 37 35 32 30 29 29 27 26 25 25 25 25 26 27 29 31 27 25 25 22 23 21 14 13 19 22 23 20 20 21 24 25 26
45 44 41 39 38 36 34 31 29 28 27 26 25 24 25 24 24 24 25 28 28 28 26 26 23 18 21 18 12 19 22 18 15 17 22 22 19 20
45 43 38 35 35 35 33 30 29 28 27 26 24 24 25 24 23 23 24 26 27 28 27 25 24 18 17 18 19 18 20 15 15 17 19 18 15 14
43 40 38 35 34 33 32 28 29 29 28 26 24 23 24 24 23 23 22 24 25 26 27 26 24 17 14 15 16 19 20 5 12 15 16 19 11 11
42 40 43 35 31 29 29 27 28 29 29 27 24 24 24 23 22 23 22 22 22 20 23 26 23 18 11 11 14 17 15 15 13 14 18 16 8 8
42 46 43 30 29 27 27 28 28 30 30 27 25 24 23 23 21 22 21 22 22 21 18 19 23 19 10 9 11 11 11 15 11 12 15 16 6 5
39 38 32 29 29 28 27 27 29 29 29 27 25 24 23 22 20 20 20 21 20 19 19 19 17 16 11 9 8 8 11 11 8 13 14 15 4 3
42 35 37 33 28 27 26 25 26 27 26 26 23 23 22 21 20 19 19 19 18 17 19 18 16 14 9 9 8 6 7 10 11 13 13 11 6 7
26 31 34 33 27 31 26 23 25 26 24 23 20 21 20 19 18 18 18 17 16 15 16 17 16 14 9 9 8 8 9 10 10 9 11 11 7 1
26 26 25 24 24 21 22 22 23 24 22 21 19 20 19 18 18 17 17 16 14 14 14 15 14 13 11 9 10 9 9 10 9 12 9 8 5 2
22 22 21 22 21 21 24 22 23 24 21 19 18 18 18 18 17 17 16 15 14 13 14 13 13 12 11 10 10 10 8 9 10 12 8 7 4 3
23 22 21 21 21 25 22 20 20 22 20 18 17 16 16 16 17 16 16 15 13 13 13 13 12 11 10 10 10 9 8 8 8 10 9 5 4 4

GFSNE_700_spd_060.txt.gz
Wind_Speed
38 39 40 38 39 36 34 32 33 34 34 32 35 35 43 43 42 42 41 40 38 36 34 34 35 36 38 39 41 42 42 43 44 44 44 44 44 45
38 39 37 39 34 33 32 33 33 34 38 34 35 36 41 40 40 40 39 38 36 34 32 33 34 35 37 38 38 38 37 36 37 37 38 38 39 40
39 35 37 34 31 32 34 33 34 35 38 37 36 33 40 41 38 38 37 37 35 33 31 31 32 34 36 34 32 31 30 30 31 31 31 32 33 34
40 37 33 32 32 33 34 36 36 37 39 39 36 35 34 36 38 37 35 34 32 31 30 30 31 34 34 32 29 29 27 26 26 26 26 28 30 32
37 33 32 33 34 36 37 38 38 38 39 36 38 36 33 34 38 37 35 33 31 30 30 30 30 33 33 29 27 26 23 23 22 22 23 25 28 30
37 33 33 34 36 37 38 40 39 39 37 36 38 36 32 31 34 33 33 32 29 30 29 30 30 30 30 27 26 21 20 20 19 18 20 23 26 29
35 35 36 38 37 38 38 40 39 39 39 39 39 38 37 31 26 29 34 32 28 28 28 29 29 29 28 28 25 21 18 17 17 18 21 23 26 29
37 37 40 42 40 40 41 41 40 40 40 39 39 39 37 29 30 32 33 31 29 27 27 27 28 27 27 26 24 21 20 19 19 21 23 26 28 29
39 40 42 43 45 43 44 43 43 41 40 38 39 37 36 35 35 33 31 30 28 26 26 26 25 27 28 25 24 22 21 22 22 22 24 26 26 26
42 44 45 45 45 47 46 44 45 42 39 38 36 35 36 34 33 32 31 29 27 25 25 25 23 26 29 24 24 22 21 22 22 22 24 26 25 24
46 48 49 49 48 47 45 44 43 40 38 35 34 37 35 33 31 31 29 29 27 24 24 25 23 24 28 24 21 19 21 22 24 25 26 25 18 17
53 54 54 53 51 45 46 44 44 38 36 36 35 34 32 31 29 29 28 28 26 24 24 25 24 25 27 26 20 18 20 23 25 26 27 20 16 18
57 57 55 52 51 45 42 43 42 36 36 37 34 34 31 30 30 29 27 27 25 23 23 24 23 23 25 26 22 16 17 17 19 21 16 14 17 20
56 55 52 49 47 46 42 40 39 38 37 38 34 32 28 28 28 29 28 27 25 23 22 23 22 23 23 23 19 15 14 15 19 14 12 14 17 22
50 49 47 44 39 38 38 41 35 41 40 36 30 30 25 27 28 29 28 25 25 22 22 22 21 22 21 21 19 13 13 12 10 12 13 15 18 20
51 49 44 41 36 33 33 37 39 35 34 32 30 29 31 31 29 28 28 24 24 21 20 20 20 21 20 19 18 12 11 10 10 8 9 15 18 17
50 46 41 37 34 31 26 28 24 28 27 27 29 27 31 31 28 27 26 22 21 19 18 18 19 20 19 17 15 13 11 9 10 11 14 15 15 13
45 42 36 31 27 22 23 22 21 22 22 24 25 24 27 27 25 25 25 21 19 18 17 17 16 17 17 17 13 12 11 11 11 13 14 15 14 9
41 35 29 24 17 15 18 21 21 21 24 23 24 22 22 23 23 24 24 19 18 17 16 15 15 15 15 14 14 13 13 12 12 12 13 14 13 11
34 29 23 18 17 14 16 17 20 27 24 24 22 22 23 23 23 23 20 18 17 16 14 14 14 14 13 13 12 13 13 13 14 14 14 15 12 11
33 27 23 21 22 21 19 17 18 19 20 20 23 22 22 22 21 21 18 17 17 15 13 13 13 12 12 12 11 9 12 13 12 12 12 12 9 7
31 30 26 28 25 21 21 19 17 18 20 20 20 21 20 21 20 19 17 17 16 14 13 13 12 12 11 12 11 10 11 12 11 11 11 10 9 9
32 31 26 25 30 24 21 21 21 18 18 20 21 20 19 20 18 17 16 16 16 14 13 12 11 11 10 11 11 10 10 10 11 11 12 11 11 11